ORBCOMM FM117 [+] (41188 NORAD) Tracking and Keplerian Element Data

This shows tracking and keplerian element data for the satellite.

Feedback or suggestion? Click here.




ElementValue
Catalog41188
NameORBCOMM FM117 [+]
Epoch Orbit13950
Epoch Day203.16567564
Epoch Year2018
RAAN86.2773
Inclination47.0015
Eccentricity0.0002787
Argument of Perigee313.8458
Mean Anonmoly46.2196
Mean Motion14.54723283
Decay Rate-3.9E-07
L11 41188U 15081K 18203.16567564 -.00000039 00000-0 29229-4 0 9992
L22 41188 47.0015 86.2773 0002787 313.8458 46.2196 14.54723283139505

Live tracking and technical data element details for ORBCOMM FM117 [+] (NORAD 41188). ORBCOMM FM117 [+] can be tracked NOW for your location showing map with azimuth and elevation plus other details from your city location.

Track the satellite on the map from your city or location and see movement details for azimuth, elevation, latitude, longitude, range, height, and movement on the map or in text.







IsCatalogInMostPopularTable: catalog: 41188, numindb: 72
Update: records affected: 1



GetName: 41188 ORBCOMM FM117 [+]

Hit Count: updated at: Mon, 23 Jul 2018 08:01:53 GMT